Wind_Speed
9 11 13 15 16 16 17 17 18 21 23 25 28 31 34 36 39 42 44 45 47 48 49 49 48 47 47 47 48 49 51 53 55 56 58 58 58 56 54 54 52 51 52 52
11 13 15 17 17 17 18 19 20 21 24 26 29 33 36 38 42 44 46 47 49 49 50 50 48 47 47 48 50 51 53 55 56 57 58 57 55 53 51 50 49 48 48 48
14 16 17 17 17 18 19 21 22 23 25 28 30 34 37 40 44 46 48 49 50 50 51 50 49 48 48 49 51 53 55 56 57 57 56 54 52 49 46 44 44 44 44 45
16 17 17 17 18 18 19 21 23 25 27 29 32 35 39 42 45 48 50 51 51 51 51 50 49 48 49 50 53 55 55 55 55 55 53 50 47 44 42 41 40 40 41 41
16 18 19 19 19 20 20 21 23 25 28 31 33 37 41 45 48 50 52 53 53 53 52 50 49 49 50 51 53 54 54 54 53 52 49 46 42 39 37 36 36 35 36 37
18 19 19 21 21 21 22 24 25 27 29 33 36 39 42 46 49 51 53 54 53 53 51 50 49 49 50 52 53 53 53 52 50 48 45 41 38 35 32 31 30 30 30 31
19 20 21 22 22 23 25 26 27 29 32 35 38 42 44 47 50 52 54 54 53 52 50 49 49 49 50 51 52 52 51 49 47 44 41 37 33 30 27 25 23 23 24 26
19 21 23 23 23 24 25 26 28 31 33 36 39 43 46 49 51 53 54 54 52 51 49 49 48 48 49 50 50 49 48 46 44 40 37 34 31 27 23 19 17 18 19 22
21 22 23 23 24 25 25 27 29 31 34 37 41 44 47 50 52 54 54 53 51 50 48 48 48 48 48 48 47 47 46 44 41 38 34 32 29 25 20 16 13 12 13 17
22 22 23 23 24 25 26 28 30 32 36 39 42 46 49 51 53 54 54 52 50 49 47 47 47 46 46 46 46 46 45 43 39 36 33 30 27 23 19 15 11 8 8 12
22 23 23 23 24 25 27 29 31 34 37 41 44 47 50 52 53 53 53 51 49 48 47 46 45 45 45 44 44 44 43 41 38 34 32 29 26 22 18 14 9 5 5 9
23 23 23 24 25 27 28 30 33 36 39 43 46 49 50 52 52 52 52 50 48 47 45 45 44 43 43 43 42 42 41 39 36 33 31 28 24 21 18 14 9 5 1 6
23 23 24 25 27 28 30 32 35 38 41 44 47 49 50 51 51 51 50 49 47 46 44 43 43 42 41 41 41 40 39 37 34 32 30 28 24 21 18 14 11 6 2 4
23 24 25 27 29 31 32 35 37 40 42 45 47 48 49 50 50 49 49 47 46 45 43 42 41 41 40 39 39 38 37 35 32 31 29 27 24 21 18 15 11 8 5 3
25 26 28 30 31 33 35 37 39 41 44 46 47 48 48 48 49 49 48 46 45 44 42 40 39 39 38 38 37 36 35 33 31 29 28 27 24 21 19 16 12 10 7 5
28 29 30 32 33 35 37 39 41 43 44 46 46 47 47 47 48 48 47 45 44 42 40 39 38 37 36 36 35 34 33 31 29 28 27 25 23 21 19 17 15 12 10 8
31 32 33 34 35 37 38 40 41 43 44 45 45 45 45 45 46 47 46 45 43 41 39 37 36 35 34 34 34 32 30 29 28 26 25 23 22 21 19 18 16 14 13 10
34 35 35 36 37 38 39 40 42 42 43 44 44 44 44 44 45 45 45 43 42 40 38 35 34 33 32 32 31 30 28 27 26 24 23 22 20 20 19 18 17 15 14 12
37 37 37 38 39 39 39 40 41 42 42 42 42 43 43 44 44 44 44 42 40 38 36 33 31 30 29 29 29 28 27 25 24 23 22 21 19 18 18 18 17 17 16 14
39 39 39 39 39 39 39 40 41 42 42 41 42 42 42 42 42 42 42 40 39 36 34 32 29 27 26 26 26 25 25 24 22 21 20 20 19 18 19 19 19 19 18 18
41 40 40 40 39 39 39 40 41 41 41 41 40 40 40 40 39 39 39 38 37 35 32 30 27 24 22 22 22 22 22 22 21 20 19 18 18 18 18 19 20 20 21 21
41 40 40 40 40 40 40 41 41 40 40 39 38 38 37 37 37 38 38 36 35 33 31 28 25 22 20 19 19 19 19 19 19 19 19 18 18 18 17 18 19 20 20 20
42 42 42 42 41 40 40 40 40 39 39 38 36 36 36 36 36 36 36 35 34 31 29 26 23 20 17 16 15 15 15 16 16 16 17 18 18 18 18 18 19 19 20 20
44 44 44 44 42 41 40 39 39 38 37 37 36 35 35 35 35 34 34 33 32 30 27 24 21 18 15 13 12 12 12 12 13 13 13 15 16 17 17 18 18 18 19 19
48 46 45 44 43 42 41 40 38 37 37 36 36 35 35 34 33 32 32 31 30 28 25 22 19 16 13 11 9 8 8 9 9 10 11 12 14 15 15 16 16 17 17 18
51 48 46 45 43 41 41 39 38 37 36 36 35 35 33 32 32 31 30 29 28 26 24 21 18 15 12 9 7 5 5 5 6 7 8 9 11 12 13 14 15 16 17 18
52 51 49 47 45 43 41 40 39 38 36 35 34 33 33 31 30 30 29 28 27 25 22 20 17 14 11 8 6 4 2 1 2 4 6 7 8 9 11 12 13 14 15 16
Wind_Direction
322 323 325 326 327 326 323 322 322 324 326 327 328 329 330 332 332 331 330 329 328 326 325 324 321 319 317 315 313 312 311 309 308 306 303 300 296 292 286 282 277 272 267 262
325 324 323 322 322 322 322 322 325 327 328 329 330 330 332 333 334 334 332 331 329 327 326 325 323 321 319 318 316 315 314 313 311 309 306 303 298 293 287 281 276 271 266 260
323 323 323 322 322 322 322 323 325 327 329 331 332 332 333 335 335 335 334 333 331 329 328 326 325 323 322 321 320 319 318 316 314 312 310 306 300 295 288 282 275 269 263 258
322 321 322 320 320 320 321 322 325 327 329 331 333 334 334 336 335 335 335 334 332 331 330 329 328 327 326 325 324 323 321 320 318 316 313 310 304 298 291 282 276 269 260 254
321 321 319 319 320 321 323 324 325 327 329 331 334 335 335 336 336 336 336 335 334 333 332 331 330 330 329 328 328 327 326 324 323 321 318 314 309 302 294 285 276 269 259 253
318 318 316 318 322 323 324 325 328 329 332 333 334 336 336 336 336 336 336 336 335 334 334 333 333 332 332 331 331 331 330 329 328 326 323 320 316 310 301 290 278 267 257 249
315 315 313 317 320 322 325 327 330 332 333 334 335 336 336 336 336 336 336 336 336 336 335 335 334 334 334 334 335 335 334 334 333 331 330 328 325 319 311 298 282 269 257 246
313 312 311 316 318 321 323 326 328 330 332 333 334 335 335 336 336 337 337 337 337 337 336 336 337 337 337 338 339 339 339 339 338 337 336 336 334 329 323 312 293 273 255 241
312 310 311 314 316 320 322 325 327 329 331 332 333 334 335 336 337 337 337 338 338 338 338 338 339 339 340 342 343 343 343 344 343 343 342 341 339 336 331 323 308 285 255 233
310 310 311 313 316 319 321 324 326 328 330 331 332 333 335 336 337 338 338 339 339 339 340 340 341 341 342 344 345 346 347 347 348 347 347 346 345 344 341 335 323 298 252 227
309 308 310 312 315 318 320 323 325 327 329 330 332 334 335 337 338 339 340 340 341 341 341 342 343 343 344 346 348 349 350 351 353 353 353 353 352 352 350 347 341 317 244 217
307 308 310 312 314 317 319 322 324 326 328 330 332 334 336 338 339 339 340 341 342 342 342 344 345 345 346 348 350 351 352 354 356 357 359 360 1 2 3 3 2 358 247 207
305 306 309 312 314 316 318 320 322 325 327 329 332 334 336 338 340 341 341 342 342 343 344 345 346 347 348 350 352 354 355 357 359 2 4 7 10 12 14 17 21 31 76 171
304 306 309 311 313 314 316 318 321 324 326 328 331 333 336 338 340 341 342 342 343 344 345 346 347 349 350 352 353 356 358 1 3 5 8 11 14 17 20 24 31 40 57 116
305 307 309 310 311 313 315 317 320 322 325 327 330 332 334 337 340 341 342 343 343 345 346 346 348 350 352 353 355 357 1 4 7 9 12 14 18 22 27 33 37 42 51 75
304 306 307 308 309 311 313 315 318 321 323 326 328 330 333 336 339 341 342 343 343 345 346 346 348 351 353 355 357 359 3 7 10 13 15 19 22 26 31 36 42 48 57 74
301 302 303 304 306 309 312 314 317 319 321 323 326 328 332 335 338 341 342 343 343 344 345 347 349 352 354 357 359 2 5 9 12 16 19 21 25 29 35 39 44 50 58 70
298 299 301 302 305 307 309 312 314 317 319 321 324 326 329 333 336 339 341 342 342 343 345 346 349 352 355 357 360 4 8 11 15 20 23 25 29 34 40 45 49 52 58 65
293 295 297 299 301 303 306 309 311 314 317 319 322 325 327 330 334 337 339 341 341 342 343 345 348 351 355 359 1 6 11 15 19 24 27 30 34 38 42 45 49 53 57 64
289 290 293 295 297 299 302 305 307 311 315 317 320 322 325 328 332 335 338 340 340 341 342 344 347 350 354 359 4 8 14 19 24 29 33 36 41 45 49 53 57 60 65 70
286 288 290 292 294 297 300 301 304 308 312 314 317 321 324 327 331 334 337 339 340 340 341 343 346 349 352 358 4 11 16 22 28 34 37 42 46 51 55 59 63 66 70 72
285 286 288 289 291 293 296 298 301 305 308 311 314 318 322 325 328 332 335 337 338 339 340 341 344 347 349 355 3 11 18 23 30 37 42 48 52 57 62 65 69 72 75 77
283 284 285 287 289 291 293 295 298 301 304 307 310 314 318 322 326 329 332 334 335 336 337 338 340 344 347 351 0 11 19 24 31 40 46 52 56 61 67 72 73 75 79 83
281 281 282 284 285 287 290 292 295 298 301 303 307 311 315 318 322 325 328 330 331 333 333 335 336 339 343 346 355 8 20 29 35 43 50 55 60 64 70 75 79 82 85 86
279 280 280 281 282 284 285 287 290 293 295 298 302 307 311 315 317 321 324 327 329 330 329 330 331 332 336 339 347 3 20 32 40 47 54 60 65 68 73 78 83 87 91 93
278 278 278 279 280 280 282 283 285 288 290 294 298 303 307 310 313 316 320 323 326 327 326 326 326 326 327 328 333 348 14 35 48 56 63 68 72 75 79 83 86 90 93 97
276 276 276 277 277 277 278 279 281 283 285 289 293 297 302 306 309 312 316 319 322 323 323 322 321 319 317 316 316 315 322 34 73 77 80 84 87 89 90 92 93 95 98 100
Height
5851 5849 5846 5844 5842 5840 5837 5834 5831 5827 5822 5818 5812 5806 5801 5795 5788 5780 5772 5763 5754 5745 5736 5727 5718 5709 5701 5692 5683 5675 5666 5657 5648 5638 5629 5621 5613 5607 5602 5598 5596 5595 5595 5596
5848 5846 5844 5841 5839 5836 5833 5829 5826 5822 5818 5813 5807 5801 5795 5788 5780 5772 5763 5754 5745 5735 5726 5716 5707 5698 5689 5680 5671 5661 5651 5641 5630 5620 5610 5600 5592 5585 5581 5577 5575 5574 5575 5576
5846 5843 5841 5838 5836 5832 5829 5825 5821 5817 5813 5807 5802 5795 5788 5781 5773 5764 5755 5746 5736 5726 5716 5706 5696 5687 5677 5668 5657 5647 5636 5624 5613 5602 5591 5581 5573 5566 5561 5557 5555 5555 5556 5557
5842 5841 5838 5837 5832 5829 5825 5821 5816 5812 5807 5802 5796 5789 5782 5774 5766 5757 5747 5737 5727 5716 5706 5696 5685 5675 5666 5655 5644 5633 5621 5609 5597 5585 5574 5564 5555 5548 5543 5540 5538 5538 5539 5541
5839 5837 5834 5831 5828 5824 5820 5817 5812 5808 5802 5797 5791 5784 5775 5767 5758 5748 5738 5728 5718 5707 5696 5686 5675 5665 5655 5644 5632 5620 5608 5595 5583 5571 5559 5549 5540 5533 5527 5524 5522 5522 5523 5526
5835 5833 5830 5828 5823 5819 5816 5812 5807 5802 5796 5790 5784 5778 5771 5761 5752 5742 5731 5720 5710 5698 5687 5677 5666 5656 5645 5633 5621 5609 5596 5583 5571 5559 5548 5537 5528 5521 5515 5511 5510 5509 5511 5514
5831 5828 5825 5822 5818 5815 5812 5807 5801 5796 5790 5784 5777 5771 5763 5754 5745 5734 5724 5713 5702 5690 5679 5669 5658 5648 5636 5624 5612 5599 5586 5573 5561 5549 5538 5529 5520 5512 5506 5502 5499 5500 5501 5504
5827 5824 5822 5817 5813 5810 5806 5801 5795 5790 5785 5779 5772 5764 5756 5747 5737 5727 5717 5706 5694 5683 5672 5661 5651 5640 5628 5617 5604 5592 5579 5566 5554 5542 5532 5523 5514 5507 5501 5496 5494 5493 5494 5497
5823 5821 5816 5812 5808 5804 5800 5795 5790 5785 5779 5773 5766 5758 5750 5741 5731 5720 5709 5698 5687 5676 5665 5654 5643 5632 5621 5610 5598 5586 5573 5561 5549 5538 5528 5519 5511 5504 5498 5494 5491 5490 5490 5492
5817 5814 5810 5806 5802 5799 5794 5790 5785 5779 5773 5767 5760 5752 5743 5734 5724 5714 5703 5692 5681 5670 5659 5649 5638 5627 5616 5604 5593 5581 5569 5557 5546 5536 5526 5517 5509 5502 5496 5492 5489 5488 5488 5490
5811 5808 5805 5801 5797 5793 5789 5784 5779 5773 5767 5761 5754 5745 5737 5727 5717 5707 5696 5685 5674 5664 5654 5643 5633 5622 5611 5600 5589 5578 5566 5555 5544 5534 5525 5516 5509 5502 5496 5492 5489 5488 5488 5489
5806 5803 5799 5796 5792 5787 5783 5778 5773 5767 5761 5754 5747 5739 5730 5721 5711 5700 5690 5680 5669 5659 5649 5639 5629 5618 5608 5597 5587 5576 5565 5554 5544 5534 5526 5517 5510 5504 5498 5494 5491 5489 5488 5489
5799 5796 5793 5789 5785 5781 5777 5772 5766 5761 5755 5748 5740 5732 5723 5714 5705 5695 5685 5675 5665 5655 5645 5635 5625 5615 5605 5595 5585 5574 5564 5554 5544 5535 5527 5519 5512 5506 5501 5497 5493 5491 5490 5491
5793 5790 5786 5783 5779 5775 5770 5765 5760 5754 5748 5741 5734 5726 5717 5708 5699 5690 5680 5670 5660 5651 5641 5632 5622 5613 5603 5594 5584 5574 5564 5554 5546 5537 5529 5522 5515 5510 5505 5501 5497 5495 5494 5493
5785 5782 5779 5776 5772 5768 5763 5758 5753 5747 5741 5734 5727 5719 5711 5703 5694 5685 5676 5666 5657 5647 5638 5629 5620 5611 5602 5593 5583 5574 5565 5556 5548 5540 5533 5526 5519 5514 5509 5505 5501 5499 5497 5496
5778 5775 5772 5768 5764 5760 5756 5751 5746 5740 5734 5727 5720 5713 5705 5698 5689 5681 5671 5662 5653 5645 5636 5627 5618 5610 5601 5592 5584 5575 5566 5558 5550 5543 5536 5530 5524 5519 5514 5510 5506 5503 5501 5500
5770 5767 5764 5761 5757 5753 5748 5743 5738 5732 5726 5720 5714 5707 5700 5693 5685 5676 5667 5658 5650 5641 5633 5625 5617 5609 5601 5593 5584 5576 5569 5561 5554 5547 5540 5534 5529 5524 5519 5515 5512 5509 5506 5504
5762 5759 5755 5752 5748 5744 5740 5735 5730 5725 5719 5713 5707 5701 5694 5687 5680 5672 5664 5655 5647 5639 5631 5623 5616 5608 5601 5593 5586 5578 5571 5564 5557 5550 5544 5539 5534 5529 5525 5521 5517 5514 5511 5509
5752 5749 5746 5743 5739 5736 5732 5727 5722 5717 5712 5706 5700 5694 5688 5681 5675 5667 5660 5652 5644 5637 5629 5622 5615 5608 5601 5594 5587 5580 5574 5567 5560 5554 5549 5544 5539 5535 5531 5527 5523 5520 5517 5515
5742 5739 5736 5733 5730 5727 5723 5719 5714 5709 5704 5699 5693 5687 5681 5676 5669 5662 5655 5648 5641 5634 5627 5620 5614 5608 5601 5595 5589 5583 5577 5570 5564 5559 5554 5549 5545 5541 5537 5533 5530 5527 5524 5521
5730 5728 5725 5722 5720 5717 5713 5709 5705 5701 5696 5691 5686 5681 5675 5670 5664 5658 5651 5644 5637 5631 5624 5618 5613 5607 5602 5596 5591 5585 5580 5574 5569 5564 5559 5555 5551 5547 5544 5541 5537 5534 5532 5530
5718 5716 5714 5711 5709 5706 5703 5699 5696 5692 5687 5683 5679 5674 5669 5664 5658 5652 5646 5640 5634 5628 5622 5617 5611 5606 5601 5597 5592 5587 5583 5578 5573 5569 5565 5561 5557 5554 5551 5548 5545 5542 5540 5538
5705 5703 5701 5699 5697 5695 5692 5689 5686 5682 5679 5675 5671 5666 5662 5657 5652 5647 5642 5636 5630 5624 5619 5614 5609 5605 5601 5597 5593 5589 5585 5581 5577 5574 5570 5567 5563 5560 5558 5555 5553 5550 5548 5547
5691 5690 5688 5686 5685 5683 5680 5678 5675 5672 5669 5666 5662 5659 5655 5650 5646 5641 5636 5631 5626 5621 5616 5612 5607 5603 5600 5597 5593 5590 5587 5584 5581 5578 5575 5572 5569 5567 5564 5562 5560 5558 5556 5555
5676 5675 5674 5673 5671 5670 5668 5666 5664 5662 5659 5656 5654 5650 5647 5643 5639 5635 5630 5626 5621 5617 5612 5609 5605 5601 5598 5596 5593 5590 5588 5586 5583 5581 5578 5576 5574 5572 5571 5569 5567 5566 5564 5563
5659 5659 5659 5658 5657 5656 5655 5653 5652 5651 5649 5647 5644 5642 5639 5636 5632 5628 5624 5620 5616 5612 5608 5605 5602 5599 5596 5594 5592 5590 5588 5587 5585 5583 5582 5580 5578 5577 5576 5575 5573 5572 5571 5571
5642 5642 5641 5642 5642 5641 5641 5640 5640 5639 5638 5636 5635 5633 5630 5628 5625 5621 5618 5615 5611 5607 5604 5601 5598 5595 5593 5592 5590 5589 5588 5587 5586 5585 5584 5583 5582 5581 5580 5579 5579 5578 5578 5578